Home   Weather   Grimstad   Past weeks

Flag for Norway Past Weather in Grimstad, Norway — Yesterday and Last 2 Weeks

Now
48 °F

Cool.


Feels Like: 44 °F
Forecast: 39 / 47 °F
Wind: 9 mph from Northwest

Location: Torungen Fyr

Current Time: Apr 23, 2017 at 4:12:12 pm

Latest Report: Apr 23, 2017 at 3:00 pm


Visibility: N/A

Pressure: 29.91 "Hg

Humidity: 28%

Dew Point: 16 °F

Location of GrimstadLocation

Past Weather in Grimstad — Graph

°F

Grimstad Temperature Yesterday

Maximum temperature yesterday: 53 °F (at 5:00 pm)
Minimum temperature yesterday: 40 °F (at 3:00 am)
Average temperature yesterday: 46 °F

High & Low Weather Summary for the Past Weeks

 TemperatureHumidityPressure
High58 °F (Apr 8, 3:00 pm)98% (Apr 17, 1:00 pm)30.58 "Hg (Apr 17, 1:00 pm)
Low32 °F (Apr 16, 6:00 am)26% (Apr 22, 3:00 pm)29.41 "Hg (Apr 12, 5:00 pm)
Average43 °F68%29.93 "Hg
* Reported Apr 8 2:00 pm — Apr 23 2:00 pm, Grimstad, Weather by CustomWeather, © 2017

Note: Actual official high and low records may vary slightly from our data, if they occured in-between our weather recording intervals... More about our weather records

Advertising

Grimstad Weather History for the Previous 24 Hours

Scroll right to see more
 ConditionsComfort  
Time TempWeatherWind HumidityBarometerVisibility
2:00 pm
Sun, Apr 23
49 °FCool.9 mph28%29.92 "HgN/A
1:00 pm48 °FCool.9 mph30%29.93 "HgN/A
12:00 pm47 °FCool.10 mph33%29.94 "HgN/A
11:00 am45 °FQuite cool.9 mph32%29.95 "HgN/A
10:00 am43 °FQuite cool.10 mph35%29.95 "HgN/A
9:00 am42 °FQuite cool.9 mph38%29.95 "HgN/A
8:00 am40 °FChilly.5 mph47%29.95 "HgN/A
7:00 am39 °FChilly.3 mph48%29.93 "HgN/A
6:00 am39 °FChilly.6 mph54%29.92 "HgN/A
5:00 am39 °FChilly.5 mph53%29.91 "HgN/A
4:00 am40 °FQuite cool.9 mph57%29.90 "HgN/A
3:00 am41 °FQuite cool.9 mph56%29.91 "HgN/A
2:00 am41 °FQuite cool.7 mph54%29.92 "HgN/A
1:00 am42 °FQuite cool.8 mph57%29.92 "HgN/A
12:00 am42 °FQuite cool.7 mph57%29.92 "HgN/A
11:00 pm
Sat, Apr 22
44 °FQuite cool.9 mph56%29.93 "HgN/A
10:00 pm45 °FCool.12 mph48%29.92 "HgN/A
9:00 pm47 °FCool.9 mph44%29.91 "HgN/A
8:00 pm49 °FCool.10 mph33%29.90 "HgN/A
7:00 pm51 °FCool.9 mph34%29.90 "HgN/A
6:00 pm52 °FCool.10 mph29%29.89 "HgN/A
5:00 pm53 °FCool.12 mph27%29.89 "HgN/A
4:00 pm51 °FCool.9 mph29%29.89 "HgN/A
Weather by CustomWeather, © 2017

See weather overviewHow to use our weather pages